CST,Max TemperatureF,Mean TemperatureF,Min TemperatureF,Max Dew PointF,MeanDew PointF,Min DewpointF,Max Humidity, Mean Humidity, Min Humidity, Max Sea Level PressureIn, Mean Sea Level PressureIn, Min Sea Level PressureIn, Max VisibilityMiles, Mean VisibilityMiles, Min VisibilityMiles, Max Wind SpeedMPH, Mean Wind SpeedMPH, Max Gust SpeedMPH,PrecipitationIn, CloudCover, Events, WindDirDegrees
2013-1-1,24,16,8,20,13,5,89,79,62,30.27,30.22,30.15,10,10,5,13,4,,0.00,2,,323
2013-1-2,30,18,5,18,12,2,91,72,53,30.26,30.21,30.16,10,9,5,13,4,,0.00,0,,192
2013-1-3,36,28,18,29,23,14,93,80,66,30.39,30.30,30.18,10,9,5,15,5,20,0.00,5,,265
2013-1-4,36,24,13,25,19,10,90,73,59,30.39,30.34,30.29,10,10,7,15,5,21,0.00,0,,218
2013-1-5,40,34,27,34,28,20,87,74,67,30.28,30.19,30.05,10,10,7,13,8,17,0.00,4,Rain,203
2013-1-6,39,31,23,33,25,19,93,78,65,30.37,30.24,30.04,10,9,5,21,12,33,0.00,4,,283
2013-1-7,43,33,23,31,26,20,86,73,59,30.37,30.26,30.14,10,10,7,15,7,20,0.00,0,,170
2013-1-8,50,41,32,34,30,26,81,67,48,30.18,30.13,30.08,10,10,10,18,9,23,0.00,2,,169
2013-1-9,52,42,32,37,33,29,87,71,49,30.50,30.36,30.13,10,10,10,15,8,17,0.00,0,,257
2013-1-10,53,42,32,54,39,29,100,89,68,30.47,30.15,29.80,10,6,0,17,9,23,0.57,5,Fog-Rain,105
2013-1-11,61,55,49,55,50,48,98,83,66,29.85,29.78,29.73,10,9,1,20,12,26,0.07,3,Rain,188
2013-1-12,57,44,30,49,38,29,94,76,59,29.99,29.91,29.77,10,8,2,18,11,25,0.19,3,Rain-Snow,296
2013-1-13,30,24,17,29,19,13,93,82,73,30.35,30.14,29.93,10,10,7,10,5,,0.00,5,Snow,311
2013-1-14,27,20,14,19,15,10,90,79,65,30.49,30.44,30.37,10,10,10,6,0,,0.00,0,,334
2013-1-15,30,22,13,23,18,10,93,82,68,30.44,30.32,30.15,10,10,10,7,1,,0.00,3,,35
2013-1-16,41,30,19,29,23,16,93,73,56,30.16,30.08,29.98,10,10,10,20,5,25,0.00,2,,227
2013-1-17,37,31,25,31,25,20,93,74,51,30.47,30.33,30.12,10,10,10,17,6,23,0.00,1,,330
2013-1-18,50,37,24,32,27,21,87,62,47,30.48,30.27,30.07,10,10,10,23,9,30,0.00,0,,189
2013-1-19,58,48,39,39,33,29,76,58,46,30.12,29.99,29.88,10,10,10,22,13,31,0.00,0,,230
2013-1-20,40,30,20,30,14,9,78,62,51,30.37,30.31,30.12,10,10,10,20,11,30,0.00,4,,315
2013-1-21,19,14,9,14,2,-5,78,56,37,30.39,30.34,30.29,10,10,10,23,14,31,0.00,1,Snow,296
2013-1-22,19,13,7,6,1,-2,70,56,42,30.48,30.40,30.37,10,10,10,14,5,9,0.00,5,,296
2013-1-23,39,26,14,23,14,4,79,61,44,30.38,30.26,30.13,10,10,10,23,4,28,0.00,1,,276
2013-1-24,27,20,13,12,7,1,71,56,44,30.64,30.48,30.28,10,10,10,17,12,24,0.00,1,,69
2013-1-25,41,34,27,24,17,11,73,54,40,30.26,30.15,30.08,10,10,10,17,9,22,0.00,4,,236
2013-1-26,36,26,16,21,14,10,75,60,40,30.41,30.34,30.23,10,10,10,17,8,23,0.00,0,,65
2013-1-27,49,36,24,48,33,18,97,87,67,30.32,30.10,29.89,10,6,1,24,11,30,0.19,6,Rain-Snow,142
2013-1-28,68,58,49,61,56,48,97,90,76,29.94,29.89,29.81,10,7,3,18,10,25,0.01,5,,175
2013-1-29,68,60,53,61,58,52,98,91,78,29.80,29.62,29.41,10,8,2,24,14,34,0.99,5,Rain-Thunderstorm,166
2013-1-30,53,39,24,52,32,16,98,85,66,29.88,29.54,29.33,10,10,5,31,14,43,0.15,8,Rain-Snow,274
2013-1-31,28,20,11,21,13,-1,75,67,57,30.31,30.03,29.88,10,10,5,25,16,33,0.00,6,Snow,280